Regional Weather Roundup
Issued by NWS Memphis, TN

Home | Current Version | Previous Version | Text Only | Print | Product List | Glossary On
Versions: 1 2 3 4 5 6 7 8 9 10 11 12 13 14 15 16 17 18 19 20 21 22 23 24 25 26 27 28 29 30 31 32 33 34 35 36 37 38 39 40 41 42 43 44 45 46 47 48 49 50
000
ASUS44 KMEG 200100
RWRMEG
MEMPHIS CWA HOURLY WEATHER ROUNDUP
NATIONAL WEATHER SERVICE MEMPHIS TN
800 PM CDT SUN APR 19 2015

...WEST TENNESSEE...

CITY           SKY/WX    TMP DP  RH WIND       PRES   REMARKS
MEMPHIS INTL   MOCLDY    70  57  63 S7        29.59S
NWS MEMPHIS      N/A     71 N/A N/A MISG        N/A
JACKSON        CLEAR     66  57  72 SW7       29.60S
LEXINGTON      CLEAR     63  61  94 CALM      29.60F
SAVANNAH       CLEAR     66  32  28 CALM      29.64R
DYERSBURG      PTCLDY    63  46  55 CALM      29.59S
UNION CITY     CLOUDY    63  32  31 SW6       29.57S
PARIS            N/A     63  59  88 SW10      29.59R


...EASTERN ARKANSAS...

CITY           SKY/WX    TMP DP  RH WIND       PRES   REMARKS
JONESBORO      MOCLDY    71  58  63 S12       29.54S
WEST MEMPHIS   CLEAR     67  61  81 S6        29.57S
BATESVILLE     CLOUDY    61  57  88 E3        29.56F THUNDER
WALNUT RIDGE   CLOUDY    55  48  76 NW7G48    29.63R THUNDER VSB 3/4
BLYTHEVILLE    MOCLDY    67  60  78 SE5       29.56F
SEARCY         LGT RAIN  57  54  89 VRB3      29.58F
STUTTGART      CLOUDY    70  59  68 S21G30    29.58R THUNDER
PINE BLUFF     CLOUDY    66  62  87 VRB3      29.59F THUNDER
MONTICELLO     MOCLDY    75  63  66 SW12      29.61S


...NORTH MISSISSIPPI...

CITY           SKY/WX    TMP DP  RH WIND       PRES   REMARKS
TUPELO         CLEAR     67  58  72 SW5       29.64S
OLIVE BRANCH   PTCLDY    66  63  88 S6        29.61R
TUNICA         CLEAR     72  61  68 S9G16     29.60S
GREENWOOD      MOCLDY    71  62  73 S7        29.66R
COLUMBUS       CLEAR     68  58  72 S6        29.66S
STARKVILLE     FAIR      68  59  73 CALM      29.67S
GOLDEN TRIANGL CLEAR     68  57  68 S6        29.67S


...SOUTHEAST MISSOURI...

CITY           SKY/WX    TMP DP  RH WIND       PRES   REMARKS
WEST PLAINS    CLOUDY    59  53  80 SW6       29.58F
POPLAR BLUFF   CLEAR     63  58  83 CALM      29.51F
CAPE GIRARDEAU MOCLDY    65  62  90 SW6       29.52S


...NORTHWEST ALABAMA...

CITY           SKY/WX    TMP DP  RH WIND       PRES   REMARKS
MUSCLE SHOALS  CLEAR     68  59  73 SW6       29.66R


...MIDDLE TENNESSEE...

CITY           SKY/WX    TMP DP  RH WIND       PRES   REMARKS
NASHVILLE      MOCLDY    67  61  81 SW7       29.62R
CLARKSVILLE    MOCLDY    64  62  93 S7        29.55F
COLUMBIA       CLEAR     66  32  28 SW7       29.62R


...WESTERN KENTUCKY...

CITY           SKY/WX    TMP DP  RH WIND       PRES   REMARKS
PADUCAH        CLOUDY    64  60  87 CALM      29.54R


...CENTRAL ARKANSAS...

CITY           SKY/WX    TMP DP  RH WIND       PRES   REMARKS
LITTLE ROCK    MOCLDY    67  60  78 SW6       29.57R


SKY/WX REPORTED AS FAIR MEANS FEW OR NO CLOUDS BELOW
12 THOUSAND FEET.



USA.gov is the U.S. government's official web portal to all federal, state and local government web resources and services.